Total_Precipitation_Accumulation
0.64 0.64 0.67 0.72 0.73 0.72 0.69 0.67 0.71 0.78 0.89 1.10 1.37 1.77 1.99 2.12 2.11 2.11 2.02 1.79 1.55 1.57 1.76 1.75 1.71 1.70 1.71 1.68 1.62 1.79 1.73 1.46 1.37 1.58 1.57 1.41 1.22 1.17 1.16 1.23 1.47 1.58 1.50
0.61 0.58 0.56 0.59 0.63 0.61 0.63 0.73 0.71 0.75 0.86 1.11 1.38 1.69 2.02 2.08 2.10 2.11 2.07 1.95 1.79 1.78 1.84 2.07 2.16 2.13 2.27 2.25 2.06 2.21 2.23 1.85 1.61 1.91 2.25 1.96 1.72 1.30 1.21 1.34 1.41 1.50 1.58
0.49 0.52 0.51 0.51 0.55 0.53 0.49 0.60 0.69 0.79 1.03 1.33 1.57 1.73 2.00 2.08 2.12 2.08 2.09 2.11 2.04 1.94 1.99 2.12 2.28 2.29 2.38 2.51 2.57 2.49 2.60 2.42 2.01 1.89 2.22 2.16 2.00 1.79 1.43 1.36 1.44 1.60 1.66
0.43 0.43 0.47 0.48 0.45 0.42 0.39 0.46 0.57 0.79 1.14 1.47 1.67 1.88 2.22 2.27 2.18 2.18 2.14 2.15 2.17 2.14 2.24 2.28 2.38 2.38 2.40 2.52 2.61 2.55 2.71 2.81 2.44 2.12 1.91 1.75 1.76 1.92 1.75 1.51 1.47 1.62 1.64
0.35 0.34 0.36 0.37 0.38 0.41 0.42 0.46 0.62 0.87 1.17 1.39 1.64 1.99 2.18 2.24 2.33 2.22 2.17 2.16 2.21 2.23 2.29 2.37 2.54 2.52 2.50 2.48 2.69 2.72 2.82 2.76 2.70 2.56 2.37 2.20 1.97 1.67 1.81 1.85 1.69 1.57 1.47
0.33 0.34 0.36 0.37 0.39 0.42 0.48 0.58 0.75 0.92 1.17 1.38 1.62 1.80 2.00 2.10 2.20 2.26 2.17 2.14 2.19 2.28 2.17 2.09 2.28 2.34 2.37 2.37 2.56 2.72 2.85 2.82 2.84 2.78 2.49 2.45 2.34 2.02 1.99 1.85 1.72 1.73 1.54
0.41 0.45 0.47 0.55 0.63 0.65 0.67 0.76 0.88 1.03 1.17 1.30 1.44 1.50 1.64 1.77 1.77 1.92 1.98 2.09 2.09 2.13 2.14 2.03 2.04 2.09 2.05 2.08 2.21 2.28 2.35 2.49 2.66 2.57 2.36 2.32 2.16 2.15 2.23 2.12 1.88 1.71 1.47
0.57 0.67 0.75 0.83 0.93 0.94 0.95 1.02 1.08 1.10 1.15 1.22 1.28 1.33 1.40 1.47 1.50 1.52 1.51 1.66 1.81 1.82 1.88 1.89 1.83 1.89 1.95 1.93 2.04 2.08 2.10 2.13 2.20 2.17 2.26 2.32 2.18 2.13 2.10 2.17 2.32 2.07 1.81
0.83 0.93 1.04 1.06 1.06 1.07 1.05 1.07 1.11 1.10 1.11 1.16 1.17 1.10 1.09 1.17 1.26 1.26 1.32 1.34 1.40 1.39 1.44 1.52 1.60 1.69 1.76 1.81 1.97 2.08 2.08 2.03 2.00 2.09 2.17 2.12 2.09 2.09 2.00 2.01 2.18 2.28 2.11
1.19 1.30 1.40 1.33 1.25 1.27 1.33 1.24 1.15 1.09 1.06 1.07 1.11 1.03 0.99 1.05 1.09 1.05 1.10 1.07 1.07 1.07 1.11 1.21 1.38 1.61 1.73 1.76 1.85 1.94 2.02 2.03 1.99 2.08 2.19 2.23 2.21 2.24 2.18 2.07 2.06 2.00 2.05
1.59 1.68 1.69 1.60 1.42 1.30 1.30 1.26 1.16 1.05 0.94 0.93 1.01 1.03 0.95 0.98 1.01 0.99 0.92 0.88 0.89 0.94 1.03 1.07 1.22 1.37 1.56 1.74 1.88 1.92 1.92 1.95 1.94 1.86 1.97 2.10 2.18 2.29 2.33 2.35 2.25 2.10 2.03
1.50 1.54 1.50 1.49 1.38 1.28 1.19 1.18 1.09 0.93 0.88 0.93 0.96 0.99 0.89 0.86 0.91 0.90 0.93 0.82 0.76 0.78 0.84 0.97 1.17 1.28 1.36 1.41 1.50 1.59 1.65 1.70 1.76 1.75 1.72 1.79 1.88 2.04 2.19 2.29 2.26 2.25 2.13
1.21 1.29 1.34 1.23 1.18 1.12 1.06 1.17 1.19 1.07 1.02 1.05 1.15 1.07 0.91 0.89 0.91 0.86 0.92 0.85 0.79 0.78 0.80 0.92 1.07 1.12 1.18 1.21 1.24 1.36 1.46 1.47 1.47 1.53 1.49 1.49 1.57 1.72 1.87 1.96 2.05 2.18 2.21
1.05 1.08 1.13 1.08 1.09 1.04 1.01 1.14 1.18 1.18 1.22 1.28 1.29 1.15 1.02 0.91 0.87 0.85 0.88 0.86 0.85 0.85 0.87 0.99 1.06 1.08 1.06 1.15 1.19 1.25 1.27 1.21 1.17 1.21 1.20 1.23 1.28 1.38 1.53 1.69 1.90 2.07 2.18
0.89 0.82 0.80 0.81 0.87 0.86 0.81 0.88 0.98 1.06 1.17 1.22 1.16 1.08 0.97 0.84 0.78 0.82 0.81 0.85 0.89 0.88 0.90 0.94 1.04 1.07 1.05 1.10 1.17 1.14 1.07 1.05 1.03 0.98 0.88 0.90 0.98 1.01 1.11 1.15 1.44 1.70 1.91
0.65 0.61 0.57 0.56 0.61 0.55 0.57 0.61 0.71 0.87 1.05 1.13 1.02 0.90 0.84 0.82 0.76 0.73 0.70 0.71 0.74 0.75 0.77 0.82 0.98 1.07 0.97 1.08 1.06 0.97 0.89 0.85 0.90 0.86 0.78 0.77 0.82 0.75 0.72 0.75 0.97 1.26 1.45
0.54 0.55 0.53 0.49 0.51 0.47 0.49 0.57 0.65 0.78 0.86 0.89 0.83 0.74 0.71 0.68 0.62 0.60 0.61 0.65 0.67 0.68 0.70 0.72 0.86 0.96 1.02 0.95 0.79 0.84 0.83 0.83 0.86 0.89 0.90 0.81 0.77 0.86 0.76 0.70 0.77 0.85 0.96
0.44 0.49 0.51 0.49 0.50 0.54 0.57 0.67 0.73 0.73 0.75 0.79 0.78 0.72 0.65 0.60 0.55 0.51 0.53 0.64 0.66 0.63 0.64 0.66 0.68 0.76 0.90 0.85 0.68 0.72 0.71 0.82 0.91 0.94 1.01 1.01 0.95 0.93 1.00 0.93 0.94 0.90 0.84
0.25 0.28 0.32 0.34 0.40 0.44 0.49 0.51 0.53 0.54 0.55 0.58 0.64 0.60 0.51 0.53 0.56 0.53 0.57 0.62 0.63 0.66 0.64 0.65 0.66 0.71 0.76 0.74 0.67 0.69 0.74 0.86 0.89 0.85 0.97 1.01 0.97 1.02 1.08 1.17 1.23 1.15 1.00
0.16 0.15 0.16 0.17 0.21 0.26 0.39 0.44 0.41 0.35 0.34 0.37 0.43 0.45 0.41 0.44 0.51 0.60 0.66 0.63 0.60 0.64 0.65 0.61 0.58 0.61 0.62 0.68 0.60 0.71 0.81 0.86 0.86 0.87 0.93 1.09 1.01 0.98 0.96 1.03 1.17 1.16 1.02
0.14 0.15 0.14 0.15 0.18 0.24 0.28 0.31 0.37 0.33 0.31 0.32 0.34 0.36 0.35 0.37 0.46 0.51 0.50 0.50 0.53 0.56 0.57 0.58 0.56 0.55 0.62 0.74 0.74 0.80 0.81 0.85 0.91 0.99 1.03 1.01 1.10 0.94 0.89 0.90 0.91 1.00 0.99
0.11 0.12 0.13 0.16 0.21 0.22 0.21 0.22 0.25 0.26 0.28 0.28 0.31 0.31 0.28 0.27 0.30 0.36 0.40 0.43 0.44 0.46 0.45 0.46 0.46 0.49 0.60 0.68 0.69 0.72 0.77 0.85 0.84 0.89 0.89 0.86 0.96 0.81 0.72 0.66 0.73 0.80 0.85
0.09 0.11 0.16 0.20 0.23 0.22 0.19 0.20 0.21 0.24 0.29 0.29 0.29 0.29 0.27 0.26 0.27 0.32 0.35 0.39 0.43 0.45 0.43 0.40 0.40 0.45 0.50 0.57 0.59 0.59 0.59 0.63 0.64 0.61 0.72 0.74 0.72 0.67 0.59 0.63 0.67 0.69 0.71
0.10 0.12 0.17 0.20 0.21 0.21 0.22 0.23 0.22 0.22 0.25 0.26 0.26 0.26 0.27 0.28 0.27 0.30 0.35 0.41 0.41 0.38 0.37 0.38 0.40 0.45 0.49 0.49 0.49 0.51 0.51 0.50 0.54 0.53 0.56 0.59 0.56 0.56 0.57 0.60 0.64 0.69 0.73
0.11 0.13 0.15 0.19 0.20 0.21 0.23 0.24 0.23 0.21 0.22 0.23 0.22 0.22 0.23 0.26 0.26 0.24 0.26 0.33 0.36 0.34 0.36 0.37 0.41 0.45 0.48 0.46 0.43 0.42 0.47 0.51 0.56 0.62 0.58 0.55 0.56 0.56 0.63 0.66 0.65 0.68 0.71
0.13 0.14 0.14 0.17 0.18 0.19 0.23 0.25 0.28 0.27 0.24 0.23 0.22 0.23 0.23 0.24 0.24 0.23 0.24 0.27 0.27 0.31 0.32 0.29 0.29 0.28 0.28 0.32 0.32 0.33 0.37 0.44 0.49 0.62 0.69 0.72 0.77 0.79 0.79 0.76 0.67 0.61 0.61